Wind_Speed
26 25 25 25 25 27 30 33 37 41 44 48 50 53 55 56 57 59 61 61 62 63 62 62 63 64 66 67 68 68 68 68 65 62 59 57 55 53 54 55 56 55
27 26 26 26 25 25 26 29 32 36 40 44 47 50 52 54 56 58 60 61 62 62 62 63 63 65 67 69 69 70 70 69 66 63 60 58 56 55 55 58 58 56
28 28 27 27 27 26 25 26 29 32 36 41 44 48 51 53 55 57 60 61 62 62 63 63 64 66 68 69 71 72 72 70 66 63 62 60 58 56 57 60 60 58
30 30 29 30 29 28 26 25 26 29 33 37 42 46 49 52 54 57 59 61 62 63 63 64 65 67 69 70 71 72 72 70 67 65 65 63 60 58 59 61 62 60
32 32 32 32 32 31 29 27 26 27 30 34 39 44 48 51 54 56 59 61 63 63 64 65 66 68 70 71 72 72 72 70 68 68 67 65 62 60 60 63 64 62
33 33 33 34 33 32 31 30 28 27 28 31 36 42 47 51 53 56 58 61 63 64 65 66 67 68 70 72 73 73 73 72 70 69 67 66 64 62 62 65 65 63
34 34 34 34 33 33 32 32 30 28 27 29 33 39 45 49 53 55 58 61 63 65 66 67 68 69 71 73 73 74 74 73 71 69 68 67 65 63 63 66 67 66
36 35 34 33 33 32 32 32 32 30 29 29 32 37 42 48 52 55 57 61 63 65 67 68 69 70 72 73 74 74 74 74 71 69 69 69 67 66 66 68 70 70
38 37 36 33 31 31 32 32 32 32 32 30 31 35 40 45 50 54 57 60 63 66 67 69 70 71 72 74 75 75 75 74 72 70 71 72 72 71 71 71 72 73
38 38 36 33 31 30 31 32 33 34 33 32 32 34 38 43 48 52 56 59 63 66 68 69 71 72 73 74 75 76 76 75 73 72 73 74 75 75 75 75 75 74
37 36 35 33 31 30 31 32 33 34 34 33 33 34 37 41 46 51 55 59 63 66 69 70 72 73 74 75 76 77 77 77 75 75 75 76 77 78 77 78 78 77
35 35 35 34 32 31 30 31 33 34 35 35 34 34 36 40 44 49 53 57 62 66 69 71 73 74 75 75 77 77 78 78 77 77 78 78 78 79 78 79 80 78
34 34 34 33 32 31 30 31 32 33 34 35 35 35 35 39 43 47 52 56 61 65 69 71 73 75 76 76 77 78 78 79 79 79 79 79 79 79 79 79 80 80
32 31 31 31 31 30 30 31 31 32 34 35 35 35 36 37 41 46 50 55 59 64 68 72 74 76 77 77 78 79 79 80 80 80 81 81 81 81 80 80 81 80
29 29 28 28 28 28 28 29 30 32 33 35 36 36 36 37 40 44 49 53 58 63 68 72 74 76 78 78 79 80 80 81 82 82 82 83 83 82 82 82 81 81
27 25 24 24 24 24 25 27 29 31 33 34 35 36 36 37 39 42 47 51 56 61 66 71 75 77 79 80 80 80 81 81 82 83 83 84 84 84 83 83 82 81
24 22 21 21 20 21 22 24 27 29 32 33 35 36 36 36 38 41 45 50 54 59 65 70 74 77 79 80 81 81 82 82 83 84 84 85 85 85 85 85 84 82
23 20 19 18 18 18 19 21 24 27 30 32 34 36 36 36 37 39 43 47 52 57 63 68 73 77 79 81 82 82 83 83 84 85 86 86 87 87 86 86 85 84
22 20 18 17 16 16 16 18 21 23 26 30 32 34 35 36 36 38 41 45 49 54 60 66 71 76 79 81 82 83 84 84 85 86 87 88 88 88 87 87 86 85
21 20 17 16 15 14 14 15 17 20 23 26 30 32 34 35 36 36 39 42 47 51 56 62 68 74 78 81 83 84 84 85 86 87 88 89 90 90 89 88 87 87
22 20 17 16 14 13 13 13 15 17 20 23 27 30 32 33 34 35 36 40 44 48 52 58 64 70 76 80 83 84 85 86 87 88 89 90 91 91 91 89 88 88
22 20 18 15 13 12 12 12 13 15 18 21 24 26 29 31 33 34 35 37 41 45 50 54 60 66 73 79 82 84 85 86 87 88 89 90 92 93 93 92 90 89
23 21 18 15 13 12 11 12 13 14 17 19 22 25 27 29 31 33 34 36 38 42 47 51 56 62 69 75 81 84 85 86 87 88 89 90 92 93 94 94 93 92
22 21 19 16 12 11 11 11 13 14 16 18 21 23 25 28 30 32 33 35 36 39 44 48 53 58 64 71 77 82 85 86 87 88 89 90 91 93 94 94 94 94
20 20 19 17 13 11 10 10 12 14 16 18 20 22 24 26 29 31 33 34 36 37 40 45 49 54 59 65 72 78 83 85 87 88 89 90 91 92 93 94 94 95
19 18 18 17 14 11 9 9 10 12 14 17 19 21 23 25 28 30 31 33 35 36 38 41 45 50 54 59 65 72 78 83 86 87 88 89 90 91 92 93 94 94
Wind_Direction
284 285 284 281 277 270 262 255 250 246 244 241 239 237 235 233 231 229 228 226 225 224 223 222 221 220 220 220 220 219 219 219 220 220 218 216 217 216 215 213 210 210
281 282 283 282 279 275 268 260 252 247 243 241 239 236 234 232 230 228 227 225 223 222 220 220 219 218 218 218 218 218 218 218 219 219 217 216 216 215 214 212 209 209
280 281 281 281 279 277 272 266 258 250 244 241 239 236 233 231 228 227 226 224 222 220 218 218 217 217 217 217 217 217 217 217 217 217 216 215 214 214 213 211 209 208
281 281 281 279 277 275 273 269 262 254 246 241 238 235 233 230 228 225 224 223 221 219 217 216 216 216 216 216 216 217 217 216 216 216 215 213 213 212 211 210 209 208
281 281 279 277 275 273 272 268 264 257 249 242 237 234 232 230 227 224 223 221 220 218 216 215 214 214 215 215 215 215 216 215 215 215 214 212 211 211 210 210 210 209
282 280 277 275 272 270 268 266 262 258 252 244 238 234 231 229 227 224 221 220 218 217 215 214 213 213 213 214 214 214 215 214 214 214 213 212 211 210 209 209 210 211
284 280 276 273 270 267 264 262 260 257 253 246 239 234 231 228 226 223 221 219 217 216 214 213 213 212 212 213 213 213 214 214 213 213 213 212 211 211 210 209 210 212
286 282 278 273 268 265 262 260 258 256 252 247 240 235 231 228 226 223 220 218 217 215 213 212 212 212 211 212 212 212 213 213 212 211 212 212 211 211 211 211 212 214
287 284 280 275 269 265 261 258 256 253 250 247 242 236 231 228 226 223 220 218 216 215 213 212 212 212 211 211 211 212 212 213 211 210 211 212 212 211 212 212 213 215
287 285 282 278 272 266 261 256 253 250 248 245 242 237 232 228 226 223 220 218 216 214 213 212 211 211 211 210 211 211 212 212 211 209 211 213 213 212 212 212 214 215
288 286 284 280 274 267 260 255 250 248 245 242 240 237 233 229 226 223 220 218 216 214 213 212 211 211 211 210 210 211 211 211 211 209 210 213 214 213 213 213 214 215
290 287 285 281 276 269 262 255 249 245 243 240 238 236 233 229 226 224 221 218 216 215 213 212 211 212 211 210 210 211 211 211 211 210 210 213 216 215 214 215 215 216
291 288 284 280 276 270 264 256 249 244 241 238 236 234 233 229 226 224 221 219 217 215 213 212 211 212 212 211 210 211 211 211 211 210 211 213 216 217 217 217 217 216
294 289 284 280 275 269 263 256 249 243 239 237 234 232 231 230 226 223 221 219 217 216 214 212 211 211 212 212 211 211 211 212 212 211 211 213 216 218 219 219 218 217
298 292 286 281 275 268 261 254 248 242 237 235 233 231 229 229 227 224 222 219 217 216 215 213 212 211 212 212 212 211 212 212 212 212 212 214 217 219 220 221 220 219
302 295 288 282 276 268 260 252 246 241 236 232 231 230 228 227 227 225 222 220 218 217 216 214 213 212 212 213 213 212 212 212 212 213 212 214 217 219 221 222 222 221
307 299 292 286 278 269 260 251 244 239 235 231 229 228 227 226 226 225 223 221 219 218 217 216 214 213 212 213 213 213 213 213 213 213 213 214 217 219 221 222 223 223
315 308 300 294 285 273 261 250 243 238 234 230 228 227 226 225 225 225 223 222 220 219 217 217 215 214 213 213 214 214 214 214 213 213 214 214 217 219 221 223 224 224
324 317 309 302 293 281 266 252 242 237 234 231 228 226 226 225 225 225 224 223 221 220 219 218 217 216 214 214 215 215 215 215 215 214 214 215 216 219 221 223 224 225
331 325 315 307 298 286 273 257 244 236 233 231 228 226 225 225 225 225 225 224 223 222 221 219 218 217 216 215 216 216 216 216 216 216 215 216 217 218 220 222 224 226
336 333 322 311 302 290 277 263 248 238 232 230 228 227 226 226 226 226 226 225 224 223 222 221 220 219 218 217 217 217 217 218 218 217 217 217 217 218 219 221 223 226
337 338 330 317 305 294 279 264 250 239 232 228 226 225 225 226 226 226 227 226 225 224 224 223 221 220 219 218 218 218 219 219 219 219 219 218 218 219 220 220 222 225
337 339 336 324 309 295 280 264 251 241 233 228 225 223 223 224 226 227 227 227 227 226 225 224 223 222 221 220 219 219 220 220 220 221 221 220 220 220 220 221 222 224
338 338 338 332 316 299 283 266 252 242 234 229 226 224 223 224 225 226 227 228 228 227 227 226 225 224 223 222 221 220 220 221 222 222 222 222 222 222 222 222 222 223
340 339 339 337 327 308 290 273 257 246 238 233 229 227 226 226 227 227 228 229 230 230 229 228 227 227 225 224 223 222 222 222 223 223 223 224 224 224 223 223 224 224
342 342 341 340 336 323 304 286 268 254 245 238 234 231 230 230 230 230 230 231 231 232 232 231 230 229 228 227 226 224 224 223 224 224 225 225 225 225 225 225 225 226
Height
10569 10568 10566 10565 10564 10563 10564 10564 10565 10566 10568 10570 10572 10575 10579 10583 10588 10592 10596 10601 10606 10612 10618 10624 10629 10635 10641 10646 10652 10657 10661 10665 10670 10676 10683 10688 10692 10696 10700 10704 10709 10713
10565 10564 10562 10561 10560 10560 10559 10559 10560 10561 10562 10564 10566 10569 10572 10576 10580 10584 10589 10594 10599 10605 10611 10616 10622 10628 10633 10638 10644 10649 10654 10659 10665 10672 10679 10683 10688 10692 10696 10700 10705 10710
10560 10560 10559 10557 10556 10556 10556 10556 10556 10556 10557 10558 10560 10563 10566 10569 10573 10577 10581 10587 10592 10598 10603 10609 10615 10621 10626 10631 10637 10642 10648 10654 10661 10669 10674 10678 10683 10687 10692 10696 10701 10705
10556 10555 10554 10553 10552 10552 10552 10552 10552 10552 10553 10553 10555 10557 10559 10563 10566 10570 10574 10580 10585 10591 10597 10603 10609 10614 10619 10624 10631 10637 10643 10650 10658 10663 10666 10670 10676 10682 10688 10693 10697 10701
10551 10550 10549 10547 10547 10547 10548 10548 10548 10548 10548 10549 10550 10551 10553 10556 10559 10563 10567 10573 10578 10584 10590 10596 10602 10607 10612 10618 10625 10631 10638 10646 10652 10656 10660 10665 10672 10678 10683 10688 10693 10697
10544 10544 10543 10542 10541 10542 10542 10543 10543 10543 10544 10544 10545 10546 10548 10550 10553 10557 10561 10566 10572 10578 10583 10589 10595 10600 10606 10612 10618 10625 10632 10639 10645 10650 10656 10662 10667 10673 10679 10684 10689 10693
10538 10537 10536 10536 10536 10536 10537 10537 10537 10539 10539 10539 10539 10540 10542 10544 10547 10550 10555 10559 10565 10571 10577 10582 10588 10594 10600 10606 10612 10619 10625 10632 10639 10645 10651 10657 10663 10669 10675 10679 10682 10685
10531 10530 10529 10529 10530 10530 10531 10531 10532 10533 10534 10534 10535 10535 10536 10538 10541 10545 10549 10554 10559 10565 10570 10576 10581 10587 10594 10600 10607 10613 10619 10626 10633 10640 10646 10651 10658 10663 10667 10671 10674 10676
10525 10523 10523 10523 10524 10524 10525 10525 10526 10527 10528 10529 10530 10530 10531 10533 10536 10540 10544 10548 10553 10559 10564 10570 10576 10581 10588 10595 10601 10607 10614 10620 10627 10633 10638 10643 10648 10653 10658 10662 10666 10670
10519 10517 10516 10516 10517 10518 10518 10519 10520 10521 10522 10524 10525 10525 10526 10528 10531 10534 10538 10543 10547 10553 10558 10564 10570 10575 10582 10589 10595 10601 10607 10613 10620 10626 10630 10635 10640 10645 10650 10654 10658 10662
10513 10511 10510 10510 10510 10511 10511 10512 10512 10514 10516 10518 10519 10520 10522 10523 10526 10529 10533 10537 10542 10547 10552 10558 10564 10570 10576 10583 10590 10595 10601 10607 10613 10619 10624 10628 10632 10638 10643 10647 10650 10655
10507 10506 10505 10504 10503 10504 10504 10505 10506 10508 10510 10512 10513 10515 10517 10519 10521 10524 10528 10532 10536 10541 10546 10552 10558 10564 10570 10577 10584 10590 10595 10601 10606 10612 10617 10622 10626 10631 10637 10640 10645 10650
10502 10501 10499 10498 10497 10497 10498 10499 10500 10502 10504 10506 10508 10510 10512 10514 10516 10519 10523 10527 10531 10536 10541 10546 10552 10558 10564 10571 10578 10584 10590 10595 10600 10605 10611 10616 10620 10625 10630 10634 10638 10644
10498 10496 10494 10493 10492 10492 10492 10493 10494 10496 10498 10500 10503 10505 10507 10509 10511 10514 10517 10521 10526 10531 10535 10541 10546 10552 10558 10565 10571 10578 10583 10588 10593 10599 10605 10609 10613 10618 10623 10627 10632 10637
10493 10491 10489 10487 10487 10486 10487 10487 10489 10490 10492 10495 10497 10499 10502 10504 10507 10509 10513 10516 10521 10525 10530 10535 10541 10546 10552 10558 10565 10571 10576 10582 10587 10593 10598 10603 10606 10611 10616 10620 10625 10631
10489 10486 10484 10483 10482 10482 10482 10482 10483 10485 10487 10489 10492 10494 10497 10499 10502 10505 10508 10512 10516 10520 10525 10530 10535 10540 10546 10551 10558 10564 10570 10575 10580 10586 10591 10596 10600 10604 10608 10613 10618 10624
10485 10483 10480 10479 10478 10478 10477 10478 10479 10480 10482 10484 10487 10489 10492 10495 10498 10500 10504 10507 10511 10515 10520 10524 10529 10534 10540 10545 10551 10557 10563 10568 10574 10579 10584 10589 10593 10597 10602 10606 10611 10617
10482 10479 10477 10476 10475 10474 10474 10474 10475 10476 10478 10480 10482 10485 10487 10490 10493 10496 10499 10502 10506 10510 10514 10519 10524 10529 10534 10540 10545 10551 10556 10561 10567 10572 10577 10582 10586 10591 10595 10600 10605 10609
10480 10477 10475 10473 10472 10471 10471 10471 10472 10473 10475 10476 10478 10481 10483 10486 10489 10492 10495 10498 10501 10505 10509 10513 10518 10523 10529 10534 10539 10544 10550 10555 10560 10565 10570 10575 10580 10585 10589 10594 10598 10602
10478 10475 10473 10472 10470 10469 10469 10469 10469 10470 10472 10473 10475 10477 10480 10483 10485 10488 10491 10494 10497 10500 10504 10509 10513 10518 10523 10528 10533 10538 10543 10548 10553 10558 10563 10568 10573 10578 10583 10587 10591 10595
10477 10474 10472 10470 10469 10468 10467 10467 10467 10468 10469 10471 10472 10475 10477 10480 10482 10485 10488 10490 10493 10496 10499 10503 10508 10512 10517 10522 10527 10532 10537 10541 10546 10551 10556 10561 10566 10571 10576 10581 10585 10589
10476 10473 10471 10469 10468 10466 10466 10465 10466 10466 10467 10468 10470 10472 10474 10476 10479 10482 10484 10487 10489 10491 10494 10498 10501 10506 10511 10516 10521 10525 10530 10535 10539 10544 10549 10554 10559 10564 10569 10575 10579 10583
10475 10472 10470 10468 10467 10465 10465 10464 10464 10464 10465 10466 10467 10469 10471 10473 10475 10478 10480 10482 10485 10487 10489 10492 10496 10500 10504 10509 10514 10519 10523 10528 10532 10537 10542 10547 10552 10557 10562 10567 10572 10576
10474 10472 10470 10468 10466 10464 10463 10463 10462 10463 10463 10464 10465 10467 10469 10470 10472 10474 10476 10478 10480 10483 10485 10487 10491 10494 10498 10503 10507 10512 10517 10521 10526 10531 10535 10540 10545 10549 10554 10560 10565 10569
10474 10472 10469 10467 10465 10463 10462 10461 10461 10461 10462 10462 10464 10465 10467 10468 10469 10471 10473 10475 10477 10478 10481 10483 10486 10489 10493 10497 10501 10506 10511 10515 10519 10524 10529 10533 10538 10542 10547 10552 10558 10562
10474 10471 10469 10466 10464 10462 10461 10460 10460 10459 10460 10461 10462 10463 10464 10465 10466 10468 10470 10471 10473 10475 10477 10479 10481 10484 10488 10491 10495 10500 10504 10508 10513 10517 10521 10526 10530 10535 10540 10545 10551 10555